User: anonymous   Login
Location: Codford Saint Peter
(51.1597°N, 2.0531°W)
Time: 23:52:20
(UTC+00:00)
Language:

SJ 16-02 - Orbit

View from above orbital plane
View from above orbital plane
View from above satellite
View from above satellite

Ground track
Ground track

The orbit data is extracted from the following two-line orbital elements,

1 41634U 16043A   20332.84196531  .00000169  00000-0  22661-4 0  9996
2 41634  75.0015 127.1951 0008291 262.4709  97.5536 14.85734093239502
Epoch (UTC): 27 November 2020 20:12:25
Eccentricity: 0.0008291
inclination: 75.0015°
perigee height: 605 km
apogee height: 617 km
right ascension of ascending node: 127.1951°
argument of perigee: 262.4709°
revolutions per day: 14.85734093
mean anomaly at epoch: 97.5536°
orbit number at epoch: 23950

The dashed part of the orbit path shows where the satellite is in the earth's shadow,  

DLR